Location: Brantley
(31.5822°N, 86.2569°W)
Time: 06:13:26
(UTC+00:00)

Vanguard 3 - Pass Details

Date: 25 February 2026
Orbit: 507 x 3205 km, 33.3° (Epoch: 5 March)

Event Time Altitude Azimuth Distance (km) Brightness Sun altitude
Rises 14:22:31 0° 182° (S) 6,908 12.2 24.5°
Reaches altitude 10° 14:31:47 10° 159° (SSE) 6,108 12.5 26.2°
Maximum altitude 14:38:46 13° 137° (SE) 5,829 13.1 27.5°
Drops below altitude 10° 14:45:29 10° 115° (ESE) 5,907 13.2 28.7°
Sets 14:53:46 0° 92° (E) 6,500 12.6 30.2°
